DW7371 Weather Reports


Display with metric or nautical units.
time (UTC)temp
F
wind
direction
speed
MPH
gust
MPH
rain 1hr
in
rain 24hr
in
rain mn
in
humidity
%
barometer
mb
20260905120513 54 119 0.0 0.0 0.00 0.00 0.00 94 1014.7
20260905115455 54 119 0.0 0.0 0.00 0.00 0.00 94 1014.7
20260905114505 54 176 0.0 0.0 0.00 0.00 0.00 94 1014.7
20260905113511 53 176 0.0 0.0 0.00 0.00 0.00 93 1014.7
20260905112510 53 176 0.0 0.0 0.00 0.00 0.00 94 1014.6
20260905111504 53 176 0.0 0.0 0.00 0.00 0.00 94 1014.5
20260905110446 53 176 0.0 0.0 0.00 0.00 0.00 93 1014.5
20260905105442 53 116 0.0 0.0 0.00 0.00 0.00 92 1014.5
20260905104448 54 121 0.0 1.0 0.00 0.00 0.00 93 1014.5
20260905103446 54 128 0.0 1.0 0.00 0.00 0.00 93 1014.4
20260905102429 54 155 0.0 1.0 0.00 0.00 0.00 92 1014.5
20260905101452 54 119 0.0 0.0 0.00 0.00 0.00 93 1014.4
20260905100455 54 131 0.0 0.0 0.00 0.00 0.00 93 1014.4
20260905095502 54 131 0.0 0.0 0.00 0.00 0.00 93 1014.4
20260905094511 54 131 0.0 0.0 0.00 0.00 0.00 93 1014.4
20260905093522 54 131 0.0 0.0 0.00 0.00 0.00 93 1014.4
20260905092525 54 131 0.0 0.0 0.00 0.00 0.00 93 1014.4
20260905091511 53 131 0.0 0.0 0.00 0.00 0.00 93 1014.4
20260905090514 52 131 0.0 0.0 0.00 0.00 0.00 93 1014.4
20260905084343 54 136 0.0 0.0 0.00 0.00 0.00 92 1014.4
20260905083358 54 154 0.0 0.0 0.00 0.00 0.00 92 1014.2
20260905082333 54 154 0.0 0.0 0.00 0.00 0.00 91 1014.2
20260905081258 54 161 0.0 0.0 0.00 0.00 0.00 90 1014.1
20260905080258 55 161 0.0 0.0 0.00 0.00 0.00 90 1014.1
20260905075317 55 161 0.0 0.0 0.00 0.00 0.00 90 1014.1
20260905074322 54 161 0.0 2.0 0.00 0.00 0.00 91 1014.1
20260905073308 55 149 0.0 0.0 0.00 0.00 0.00 90 1014.1
20260905072329 55 44 0.0 0.0 0.00 0.00 0.00 90 1014.0
20260905071254 55 44 0.0 0.0 0.00 0.00 0.00 90 1013.9
20260905062913 55 44 0.0 0.0 0.00 0.00 0.00 89 1013.8
20260905061930 55 44 0.0 0.0 0.00 0.00 0.00 89 1013.7
20260905060938 56 44 0.0 3.0 0.00 0.00 0.00 89 1013.7
20260905055957 56 20 1.0 3.0 0.00 0.00 0.00 89 1013.6
20260905055013 55 11 0.0 1.0 0.00 0.00 0.00 90 1013.7
20260905054014 55 28 0.0 0.0 0.00 0.00 0.00 89 1013.7
20260905053014 55 34 0.0 0.0 0.00 0.00 0.00 89 1013.7
20260905051954 55 38 0.0 1.0 0.00 0.00 0.00 89 1013.7
20260905051004 55 117 0.0 0.0 0.00 0.00 0.00 88 1013.7
20260905045950 56 74 0.0 0.0 0.00 0.00 0.00 87 1013.8
20260905043805 56 95 0.0 0.0 0.00 0.00 0.00 87 1013.7
20260905042759 56 95 0.0 0.0 0.00 0.00 0.00 86 1013.7
20260905040707 57 95 0.0 0.0 0.00 0.00 0.00 85 1013.8
20260905035726 57 95 0.0 0.0 0.00 0.00 0.00 85 1013.7
20260905034719 57 107 0.0 0.0 0.00 0.00 0.00 84 1013.7
20260905033732 57 111 0.0 0.0 0.00 0.00 0.00 84 1013.6
20260905032717 57 111 0.0 0.0 0.00 0.00 0.00 84 1013.4
20260905031653 57 111 0.0 0.0 0.00 0.00 0.00 83 1013.3
20260905030659 58 51 0.0 0.0 0.00 0.00 0.00 83 1013.1
20260905025655 59 51 0.0 0.0 0.00 0.00 0.00 81 1013.0
20260905024707 59 78 0.0 0.0 0.00 0.00 0.00 80 1013.1
20260905023731 60 94 0.0 2.0 0.00 0.00 0.00 78 1013.0
20260905022754 60 56 0.0 1.0 0.00 0.00 0.00 78 1012.9
20260905020651 62 82 0.0 3.0 0.00 0.00 0.00 75 1012.8
20260905014600 64 57 1.0 3.0 0.00 0.00 0.00 70 1012.6
20260905013534 64 51 1.0 3.0 0.00 0.00 0.00 70 1012.6
20260905012529 64 9 1.0 4.0 0.00 0.00 0.00 70 1012.5
20260905011523 64 29 2.0 4.0 0.00 0.00 0.00 71 1012.4
20260905010517 64 14 1.0 4.0 0.00 0.00 0.00 72 1012.5
20260905005542 64 29 1.0 3.0 0.00 0.00 0.00 71 1012.4
20260905004551 64 48 1.0 4.0 0.00 0.00 0.00 71 1012.3
20260905003557 64 38 2.0 7.0 0.00 0.00 0.00 71 1012.2
20260905002552 64 34 2.0 7.0 0.00 0.00 0.00 71 1012.1
20260905001608 65 331 2.0 4.0 0.00 0.00 0.00 70 1012.1
20260904235513 64 42 3.0 5.0 0.00 0.00 0.00 73 1012.0
20260904234510 64 21 2.0 4.0 0.00 0.00 0.00 73 1011.9
20260904232404 64 75 2.0 5.0 0.00 0.00 0.00 73 1011.8
20260904231357 64 33 2.0 5.0 0.00 0.00 0.00 73 1011.8
20260904225259 65 278 2.0 7.0 0.00 0.00 0.00 72 1011.8
20260904221908 67 329 3.0 8.0 0.00 0.00 0.00 68 1011.8
20260904220922 66 22 4.0 10.0 0.00 0.00 0.00 69 1011.8
20260904215919 65 11 5.0 10.0 0.00 0.00 0.00 71 1011.8
20260904214920 66 24 5.0 10.0 0.00 0.00 0.00 70 1011.8
20260904212756 66 29 4.0 10.0 0.00 0.00 0.00 70 1011.7
20260904211732 65 80 4.0 9.0 0.00 0.00 0.00 70 1011.9
20260904210729 67 24 3.0 8.0 0.00 0.00 0.00 67 1011.9
20260904204618 65 67 4.0 8.0 0.00 0.00 0.00 70 1011.7
20260904203553 65 40 4.0 8.0 0.00 0.00 0.00 72 1011.7
20260904202518 64 0 2.0 6.0 0.00 0.00 0.00 73 1011.6
20260904201520 64 64 3.0 7.0 0.00 0.00 0.00 72 1011.7
20260904200506 66 348 2.0 7.0 0.00 0.00 0.00 63 1011.6
20260904195529 64 28 2.0 4.0 0.00 0.00 0.00 71 1011.6
20260904194501 63 355 2.0 5.0 0.00 0.00 0.00 73 1011.6
20260904193511 63 51 3.0 8.0 0.00 0.00 0.00 73 1011.6
20260904192531 65 304 2.0 8.0 0.00 0.00 0.00 72 1011.7
20260904191501 63 50 2.0 7.0 0.00 0.00 0.00 73 1011.7
20260904190445 64 5 2.0 8.0 0.00 0.00 0.00 73 1011.7
20260904185456 63 115 2.0 8.0 0.00 0.00 0.00 74 1011.7
20260904184517 62 42 2.0 5.0 0.00 0.00 0.00 77 1011.7
20260904183449 61 309 2.0 5.0 0.00 0.00 0.00 78 1011.8
20260904182449 62 0 2.0 4.0 0.00 0.00 0.00 78 1011.6
20260904181422 61 351 2.0 5.0 0.00 0.00 0.00 82 1011.6
20260904180405 60 44 3.0 4.0 0.00 0.00 0.00 81 1011.5
20260904175427 59 17 2.0 4.0 0.00 0.00 0.00 82 1011.5
20260904174405 60 299 0.0 3.0 0.00 0.00 0.00 82 1011.6
20260904173402 59 273 0.0 1.0 0.00 0.00 0.00 83 1011.6
20260904172357 58 240 1.0 4.0 0.00 0.00 0.00 88 1011.5
20260904171338 57 192 2.0 3.0 0.00 0.00 0.00 90 1011.4
20260904170324 56 202 2.0 3.0 0.00 0.00 0.00 91 1011.5
20260904164109 56 176 2.0 6.0 0.00 0.00 0.00 91 1011.4
20260904163039 55 167 3.0 6.0 0.00 0.00 0.00 92 1011.4
20260904162018 55 155 2.0 6.0 0.00 0.00 0.00 92 1011.4
20260904161038 55 202 0.0 3.0 0.00 0.00 0.00 90 1011.5
20260904160043 55 193 1.0 3.0 0.00 0.00 0.00 91 1011.4
20260904155051 54 198 2.0 3.0 0.00 0.00 0.00 92 1011.3
20260904153042 54 261 0.0 0.0 0.00 0.00 0.00 92 1011.1
20260904152012 54 247 0.0 0.0 0.00 0.00 0.00 93 1011.0
20260904151022 53 247 0.0 0.0 0.00 0.00 0.00 94 1010.8
20260904150003 52 247 0.0 0.0 0.00 0.00 0.00 94 1010.6
20260904145013 52 171 0.0 0.0 0.00 0.00 0.00 94 1010.7
20260904144001 52 171 0.0 0.0 0.00 0.00 0.00 94 1010.5
20260904142955 51 171 0.0 0.0 0.00 0.00 0.00 94 1010.4
20260904141957 51 171 0.0 2.0 0.00 0.00 0.00 95 1010.4
20260904140944 51 173 1.0 4.0 0.00 0.00 0.00 94 1010.2
20260904135937 51 178 0.0 4.0 0.00 0.00 0.00 93 1010.2
20260904134911 51 117 0.0 0.0 0.00 0.00 0.00 93 1010.1
20260904133931 52 117 0.0 1.0 0.00 0.00 0.00 93 1010.0
20260904132949 52 69 0.0 2.0 0.00 0.00 0.00 93 1009.9
20260904131957 52 53 0.0 2.0 0.00 0.00 0.00 93 1009.8
20260904125800 52 156 0.0 0.0 0.00 0.00 0.00 93 1009.6
20260904124727 52 156 0.0 0.0 0.00 0.01 0.00 94 1009.6
20260904123722 52 156 0.0 0.0 0.00 0.01 0.00 94 1009.5
20260904122723 51 156 0.0 0.0 0.00 0.01 0.00 94 1009.5
20260904121740 51 165 0.0 1.0 0.00 0.01 0.00 94 1009.2